sat.trackr.live / text

‹ back to catalog

STARLINK-35272

NORAD 65899 · 2025-224T

PAYLOAD ACTIVE UNKNOWN

§ Identity

Operator
Country
US
Launch date
2025-10-07
Launch site
AFETR
Launch vehicle
Mass (kg)
RCS (m²)

Purposes: comms

External: N2YO · Heavens-Above · Gunter

§ Orbital elements

Epoch: 2026-09-20T05:16:16.431168Z

Period
93.85 min
Inclination
53.1610°
Eccentricity
0.0001043
Mean motion
15.34405584 rev/d
Perigee alt
462.0 km
Apogee alt
463.4 km
Semi-major
6,840.8 km
B*
5.4458e-4
RAAN
183.0934°
Arg perigee
98.3889°
Mean anomaly
261.7232°
Rev number
5,471

§ Raw data

STARLINK-352721 65899U 25224T   26263.21963462  .00018071  00000+0  54458-3 0  99992 65899  53.1610 183.0934 0001043  98.3889 261.7232 15.34405584 54715

JSON: /api/v1/satellites/65899 · /tle

For live sub-satellite position, see the globe view (requires WebGL).

§ Visibility from observer

Set your observer location to see the next 7 days of passes ≥ 10°. The values pass through the URL so the page stays shareable.

No JS? Fill the form by hand. The geolocation button needs JavaScript.